User: anonymous   Login
Location: DaVinci Observatory
(43.1080°N, 78.6453°W)
Time: 13:42:01
(UTC-05:00)
Language:

Envisat - Orbit

View from above orbital plane
View from above orbital plane
View from above satellite
View from above satellite

Ground track
Ground track

The orbit data is extracted from the following two-line orbital elements,

1 27386U 02009A   18053.82628448 +.00000004 +00000-0 +14890-4 0  9996
2 27386 098.1995 093.1899 0001251 088.1521 271.9806 14.37915995837095
Epoch (UTC): 22 February 2018 19:49:50
Eccentricity: 0.0001251
inclination: 98.1995°
perigee height: 764 km
apogee height: 766 km
right ascension of ascending node: 93.1899°
argument of perigee: 88.1521°
revolutions per day: 14.37915995
mean anomaly at epoch: 271.9806°
orbit number at epoch: 83709

The dashed part of the orbit path shows where the satellite is in the earth's shadow,  

DLR